User: anonymous   Login
Location: Newark
(45.2500°N, 7.5833°E)
Time: 15:26:46
(UTC+00:00)
Language:

Transit 2A Rocket - Orbit

View from above orbital plane
View from above orbital plane
View from above satellite
View from above satellite

Ground track
Ground track

The orbit data is extracted from the following two-line orbital elements,

1    47U 60007C   20028.77378316 -.00000068 +00000-0 +96690-5 0  9998
2    47 066.6651 171.1745 0222607 044.7992 317.0846 14.42069899114392
Epoch (UTC): 28 January 2020 18:34:14
Eccentricity: 0.0222607
inclination: 66.6651°
perigee height: 593 km
apogee height: 910 km
right ascension of ascending node: 171.1745°
argument of perigee: 44.7992°
revolutions per day: 14.42069899
mean anomaly at epoch: 317.0846°
orbit number at epoch: 11439

The dashed part of the orbit path shows where the satellite is in the earth's shadow,  

DLR